N8WJW Weather Reports


time (UTC)temp
C
wind
direction
speed
KPH
gust
KPH
rain 1hr
cm
rain 24hr
cm
rain mn
cm
humidity
%
barometer
mb
20260504002151 13 228 4.8 14.5 0.00 0.00 0.00 46 1012.7
20260504001649 13 206 4.8 9.7 0.00 0.00 0.00 48 1012.8
20260504001145 13 185 4.8 19.3 0.00 0.00 0.00 46 1013.0
20260504000642 13 214 3.2 11.3 0.00 0.00 0.00 46 1012.9
20260504000139 13 202 6.4 16.1 0.00 0.00 0.00 45 1013.1
20260503235637 13 206 4.8 22.5 0.00 0.00 0.00 46 1013.0
20260503235134 13 199 6.4 14.5 0.00 0.00 0.00 47 1013.0
20260503234632 13 241 3.2 9.7 0.00 0.00 0.00 47 1013.1
20260503234130 13 218 6.4 9.7 0.00 0.00 0.00 46 1012.8
20260503233627 13 22 1.6 12.9 0.00 0.00 0.00 46 1013.1
20260503233122 13 161 6.4 14.5 0.00 0.00 0.00 47 1013.0
20260503232619 13 200 6.4 17.7 0.00 0.00 0.00 45 1013.0
20260503232117 13 216 6.4 11.3 0.00 0.00 0.00 47 1013.1
20260503231615 13 184 8.0 17.7 0.00 0.00 0.00 45 1013.0
20260503231111 13 184 11.3 12.9 0.00 0.00 0.00 45 1013.1
20260503230609 13 186 8.0 11.3 0.00 0.00 0.00 46 1013.1
20260503230105 13 220 4.8 9.7 0.00 0.00 0.00 46 1012.9
20260503225603 13 217 4.8 19.3 0.00 0.00 0.00 46 1013.1
20260503225056 13 311 3.2 4.8 0.00 0.00 0.00 47 1013.0
20260503224549 13 250 8.0 17.7 0.00 0.00 0.00 45 1013.1
20260503224047 13 245 6.4 12.9 0.00 0.00 0.00 44 1013.2
20260503223545 13 210 8.0 14.5 0.00 0.00 0.00 45 1013.0
20260503223040 13 207 6.4 12.9 0.00 0.00 0.00 44 1013.3
20260503222538 13 231 4.8 19.3 0.00 0.00 0.00 45 1013.2
20260503222036 13 244 14.5 14.5 0.00 0.00 0.00 44 1013.3
20260503221534 13 205 3.2 16.1 0.00 0.00 0.00 46 1013.2
20260503221031 13 193 6.4 11.3 0.00 0.00 0.00 44 1013.5
20260503220527 13 213 4.8 14.5 0.00 0.00 0.00 44 1013.3
20260503220024 13 224 8.0 17.7 0.00 0.00 0.00 44 1013.3
20260503215521 14 249 8.0 14.5 0.00 0.00 0.00 44 1013.4
20260503215018 14 180 9.7 19.3 0.00 0.00 0.00 44 1013.1
20260503214517 14 173 6.4 17.7 0.00 0.00 0.00 45 1013.2
20260503214013 14 195 11.3 19.3 0.00 0.00 0.00 46 1013.3
20260503213511 14 210 6.4 17.7 0.00 0.00 0.00 44 1013.4
20260503213008 14 282 1.6 8.0 0.00 0.00 0.00 43 1013.3
20260503212505 14 197 3.2 11.3 0.00 0.00 0.00 43 1013.1
20260503212002 14 212 4.8 8.0 0.00 0.00 0.00 46 1013.0
20260503211459 14 219 4.8 11.3 0.00 0.00 0.00 44 1013.0
20260503210955 14 181 12.9 20.9 0.00 0.00 0.00 44 1013.2
20260503210451 15 230 6.4 14.5 0.00 0.00 0.00 44 1013.2
20260503205946 13 209 9.7 19.3 0.00 0.00 0.00 43 1013.1
20260503205443 14 233 8.0 12.9 0.00 0.00 0.00 44 1013.3
20260503204939 14 244 16.1 20.9 0.00 0.00 0.00 42 1013.2
20260503204437 15 243 16.1 27.4 0.00 0.00 0.00 42 1013.4
20260503203933 14 225 4.8 11.3 0.00 0.00 0.00 44 1013.2
20260503203431 15 236 9.7 19.3 0.00 0.00 0.00 43 1013.4
20260503202928 15 164 4.8 12.9 0.00 0.00 0.00 43 1013.4
20260503202426 15 147 6.4 11.3 0.00 0.00 0.00 45 1013.4
20260503201925 15 179 8.0 24.1 0.00 0.00 0.00 43 1013.5
20260503201421 15 214 8.0 24.1 0.00 0.00 0.00 43 1013.5
20260503200919 15 235 4.8 17.7 0.00 0.00 0.00 43 1013.5
20260503200414 15 221 4.8 9.7 0.00 0.00 0.00 44 1014.0
20260503195912 14 238 6.4 22.5 0.00 0.00 0.00 44 1014.0
20260503195409 15 188 1.6 24.1 0.00 0.00 0.00 42 1013.9
20260503194905 15 229 17.7 25.7 0.00 0.00 0.00 41 1014.0
20260503194402 14 232 6.4 24.1 0.00 0.00 0.00 44 1014.2
20260503193858 14 235 6.4 16.1 0.00 0.00 0.00 41 1014.3
20260503193353 14 208 4.8 14.5 0.00 0.00 0.00 42 1014.4
20260503192849 14 251 11.3 25.7 0.00 0.00 0.00 43 1014.4
20260503192345 14 180 6.4 17.7 0.00 0.00 0.00 43 1014.4
20260503191842 14 353 6.4 20.9 0.00 0.00 0.00 42 1014.4
20260503191339 14 237 8.0 25.7 0.00 0.00 0.00 43 1014.6
20260503190835 15 245 12.9 32.2 0.00 0.00 0.00 42 1014.7
20260503190333 16 236 11.3 14.5 0.00 0.00 0.00 40 1014.8
20260503185830 16 214 6.4 20.9 0.00 0.00 0.00 41 1014.6
20260503185325 15 191 9.7 16.1 0.00 0.00 0.00 40 1014.7
20260503184820 15 148 3.2 16.1 0.00 0.00 0.00 46 1014.8
20260503184316 14 200 16.1 17.7 0.00 0.00 0.00 41 1014.7
20260503183812 15 251 8.0 24.1 0.00 0.00 0.00 41 1014.7
20260503183310 15 275 1.6 12.9 0.00 0.00 0.00 40 1014.7
20260503182807 14 251 3.2 16.1 0.00 0.00 0.00 42 1014.8
20260503182306 15 222 6.4 17.7 0.00 0.00 0.00 42 1014.8
20260503181803 15 204 9.7 29.0 0.00 0.00 0.00 41 1015.2
20260503181300 14 181 12.9 17.7 0.00 0.00 0.00 43 1014.9
20260503180756 15 257 9.7 20.9 0.00 0.00 0.00 43 1015.1
20260503180254 15 208 8.0 17.7 0.00 0.00 0.00 43 1015.2
20260503175750 14 194 11.3 25.7 0.00 0.00 0.00 42 1015.3
20260503175249 15 196 4.8 17.7 0.00 0.00 0.00 45 1015.3
20260503174744 15 207 3.2 16.1 0.00 0.00 0.00 48 1015.3
20260503174242 15 291 4.8 17.7 0.00 0.00 0.00 43 1015.4
20260503173742 15 213 6.4 20.9 0.00 0.00 0.00 45 1015.3
20260503173239 15 179 9.7 11.3 0.00 0.00 0.00 44 1015.4
20260503172736 14 183 8.0 19.3 0.00 0.00 0.00 46 1015.5
20260503172233 14 192 8.0 14.5 0.00 0.00 0.00 45 1015.7
20260503171729 13 178 4.8 14.5 0.00 0.00 0.00 45 1015.6
20260503171226 13 238 11.3 14.5 0.00 0.00 0.00 45 1015.6
20260503170723 13 212 6.4 19.3 0.00 0.00 0.00 46 1015.8
20260503170220 13 232 8.0 20.9 0.00 0.00 0.00 43 1015.6
20260503160136 13 278 6.4 9.7 0.00 0.00 0.00 45 1016.4
20260503150606 11 189 6.4 24.1 0.00 0.00 0.00 47 1016.7
20260503130956 6 237 0.0 17.7 0.00 0.00 0.00 63 1017.4
20260503130454 6 180 6.4 11.3 0.00 0.00 0.00 66 1017.2
20260503110338 0 97 0.0 3.2 0.00 0.00 0.00 98 1017.0
20260503090224 -1 135 0.0 1.6 0.00 0.00 0.00 97 1016.8
20260503081156 0 29 0.0 3.2 0.00 0.00 0.00 96 1016.8
20260503080652 0 83 0.0 3.2 0.00 0.00 0.00 96 1017.0
20260503080149 0 60 0.0 3.2 0.00 0.00 0.00 96 1016.8
20260503072626 0 35 0.0 3.2 0.00 0.00 0.00 96 1016.7
20260503072123 0 65 0.0 3.2 0.00 0.00 0.00 95 1016.8
20260503071620 0 60 0.0 3.2 0.00 0.00 0.00 95 1016.8
20260503071116 0 81 0.0 3.2 0.00 0.00 0.00 95 1017.0
20260503070613 0 89 0.0 1.6 0.00 0.00 0.00 95 1016.8
20260503070112 0 67 0.0 3.2 0.00 0.00 0.00 95 1016.6
20260503055032 0 103 0.0 3.2 0.00 0.00 0.00 94 1017.3
20260503054528 0 93 0.0 3.2 0.00 0.00 0.00 94 1017.1
20260503054026 0 93 0.0 3.2 0.00 0.00 0.00 94 1017.2
20260503053523 0 100 1.6 3.2 0.00 0.00 0.00 94 1017.4
20260503053021 0 113 1.6 3.2 0.00 0.00 0.00 93 1017.2
20260503052517 0 104 1.6 3.2 0.00 0.00 0.00 93 1017.2
20260503052014 0 98 0.0 3.2 0.00 0.00 0.00 93 1017.4
20260503051509 0 31 0.0 3.2 0.00 0.00 0.00 93 1017.1
20260503051007 0 93 0.0 1.6 0.00 0.00 0.00 93 1017.3
20260503050503 0 89 0.0 3.2 0.00 0.00 0.00 92 1017.4
20260503050001 0 69 0.0 1.6 0.00 0.00 0.00 92 1017.4
20260503045458 1 93 0.0 3.2 0.00 0.00 0.00 92 1017.5
20260503044955 1 32 0.0 3.2 0.00 0.00 0.00 92 1017.5
20260503044451 1 101 0.0 3.2 0.00 0.00 0.00 92 1017.6
20260503043949 1 94 1.6 3.2 0.00 0.00 0.00 92 1017.6
20260503043445 1 41 0.0 3.2 0.00 0.00 0.00 91 1017.5
20260503042941 1 52 0.0 3.2 0.00 0.00 0.00 91 1017.5
20260503042438 1 89 1.6 3.2 0.00 0.00 0.00 91 1017.6
20260503041935 2 76 3.2 3.2 0.00 0.00 0.00 91 1017.3
20260503041431 2 85 3.2 3.2 0.00 0.00 0.00 91 1017.4
20260503040929 2 87 0.0 3.2 0.00 0.00 0.00 91 1017.5
20260503040426 2 81 1.6 3.2 0.00 0.00 0.00 90 1017.6
20260503035924 2 44 1.6 3.2 0.00 0.00 0.00 90 1017.6
20260503035420 3 89 0.0 3.2 0.00 0.00 0.00 90 1017.5
20260503034918 3 140 0.0 3.2 0.00 0.00 0.00 90 1017.6
20260503034415 3 97 0.0 3.2 0.00 0.00 0.00 90 1017.5
20260503033912 3 140 0.0 3.2 0.00 0.00 0.00 90 1017.5
20260503033410 3 89 0.0 3.2 0.00 0.00 0.00 90 1017.6
20260503032908 3 110 1.6 3.2 0.00 0.00 0.00 90 1017.5
20260503032406 3 77 0.0 3.2 0.00 0.00 0.00 89 1017.6
20260503031903 3 74 0.0 3.2 0.00 0.00 0.00 89 1017.6
20260503031401 3 47 0.0 3.2 0.00 0.00 0.00 89 1017.5
20260503030856 3 32 0.0 1.6 0.00 0.00 0.00 89 1017.8
20260503030353 3 39 1.6 3.2 0.00 0.00 0.00 88 1017.5
20260503025850 3 103 0.0 3.2 0.00 0.00 0.00 88 1017.5
20260503025347 3 89 1.6 3.2 0.00 0.00 0.00 88 1017.8
20260503024845 3 103 3.2 3.2 0.00 0.00 0.00 88 1017.9
20260503024341 3 89 0.0 3.2 0.00 0.00 0.00 88 1017.9
20260503023838 3 83 0.0 4.8 0.00 0.00 0.00 88 1017.8
20260503023335 3 73 0.0 3.2 0.00 0.00 0.00 88 1018.0
20260503022832 3 126 1.6 3.2 0.00 0.00 0.00 88 1017.9
20260503022326 3 83 3.2 3.2 0.00 0.00 0.00 87 1018.0
20260503021823 3 95 0.0 4.8 0.00 0.00 0.00 87 1017.8
20260503021319 3 43 3.2 3.2 0.00 0.00 0.00 86 1017.9
20260503020817 3 85 1.6 3.2 0.00 0.00 0.00 86 1017.9
20260503020315 3 104 1.6 3.2 0.00 0.00 0.00 85 1017.9
20260503015811 3 116 1.6 3.2 0.00 0.00 0.00 85 1018.1
20260503015308 3 91 1.6 3.2 0.00 0.00 0.00 84 1017.9
20260503014804 3 51 0.0 3.2 0.00 0.00 0.00 84 1017.8
20260503014302 3 116 0.0 3.2 0.00 0.00 0.00 83 1017.9
20260503013758 3 102 0.0 3.2 0.00 0.00 0.00 83 1017.9
20260503013256 3 95 1.6 3.2 0.00 0.00 0.00 82 1018.1
20260503012753 3 65 0.0 3.2 0.00 0.00 0.00 82 1017.8
20260503012250 3 41 1.6 3.2 0.00 0.00 0.00 81 1017.9
20260503011747 3 60 0.0 3.2 0.00 0.00 0.00 81 1017.8
20260503011244 3 83 0.0 1.6 0.00 0.00 0.00 80 1018.0
20260503010740 3 80 0.0 1.6 0.00 0.00 0.00 80 1017.8
20260503010237 3 71 0.0 1.6 0.00 0.00 0.00 80 1017.7
20260503005735 3 86 0.0 3.2 0.00 0.00 0.00 79 1017.9
20260503005232 3 56 0.0 3.2 0.00 0.00 0.00 79 1017.8
20260503004727 3 53 1.6 3.2 0.00 0.00 0.00 78 1017.8
20260503004226 3 69 0.0 1.6 0.00 0.00 0.00 77 1018.0
20260503003723 3 55 0.0 3.2 0.00 0.00 0.00 77 1017.8
20260503003220 4 89 0.0 1.6 0.00 0.00 0.00 77 1017.6
20260503002717 4 81 0.0 3.2 0.00 0.00 0.00 76 1017.7